Terug naar catalogus

STARLINK-35933

ActiefCommunicatieVLEO
NORAD 66529·PAYLOAD·🇺🇸 United States

Gelanceerd Nov 19, 2025 vanaf Cape Canaveral Space Force Station

Loading…

Volgende Passages (komende 24 uur)

TLE

VersSource: CelesTrak SupGP

Epoch: Sep 15, 2026, 03:50 UTC

1 66529C 25265P   26258.16020833 -.00007316  00000+0 -26496-3 0  2580
2 66529  43.0029 288.2434 0001316 268.9692 199.3810 15.27585189    15

Volg STARLINK-35933 in realtime met AllMySat

Download on the App Store